Date,TemperatureHighF,TemperatureAvgF,TemperatureLowF,DewpointHighF,DewpointAvgF,DewpointLowF,HumidityHigh,HumidityAvg,HumidityLow,PressureMaxIn,PressureMinIn,WindSpeedMaxMPH,WindSpeedAvgMPH,GustSpeedMaxMPH,PrecipitationSumIn
2013-1-1,51,38,28,16,14,11,58,39,21,29.77,29.64,10,1,11,0.00
2013-1-2,56,42,28,17,15,12,57,36,19,29.71,29.53,6,0,11,0.00
2013-1-3,55,42,31,16,9,2,49,28,12,29.73,29.59,12,1,12,0.00
2013-1-4,54,39,27,13,9,6,46,31,16,29.77,29.63,6,0,8,0.00
2013-1-5,52,40,27,15,11,8,51,33,17,29.80,29.58,5,0,7,0.00
2013-1-6,52,42,34,18,16,13,50,36,22,29.57,29.35,3,0,6,0.00
2013-1-7,62,49,35,24,17,12,51,30,14,29.49,29.34,13,2,17,0.00
2013-1-8,68,51,36,31,24,14,51,36,23,29.57,29.41,5,0,7,0.00
2013-1-9,62,48,38,32,30,27,69,50,27,29.61,29.22,6,0,8,0.00
2013-1-10,56,48,39,33,23,6,56,37,20,29.25,29.04,26,8,33,0.00
2013-1-11,46,40,34,18,10,4,41,29,19,29.44,29.26,22,9,26,0.00
2013-1-12,43,37,32,13,6,2,40,28,19,29.55,29.42,19,5,25,0.00
2013-1-13,40,32,26,7,3,-1,38,30,19,29.62,29.51,16,2,20,0.00
2013-1-14,38,31,25,2,-1,-4,33,25,16,29.85,29.63,14,3,22,0.00
2013-1-15,48,35,22,14,8,1,46,32,22,29.98,29.83,8,1,12,0.00
2013-1-16,57,39,28,22,16,12,55,41,23,29.92,29.70,8,1,10,0.00
2013-1-17,64,46,31,20,15,12,57,32,14,29.83,29.63,6,0,7,0.00
2013-1-18,65,46,31,17,14,12,47,30,15,29.76,29.58,3,0,7,0.00
2013-1-19,66,43,30,16,14,10,50,33,13,29.75,29.58,5,0,5,0.00
2013-1-20,65,46,31,16,13,10,47,28,13,29.68,29.51,2,0,4,0.00
2013-1-21,67,49,33,14,11,9,40,24,11,29.67,29.50,5,0,7,0.00
2013-1-22,68,49,33,19,14,9,41,26,13,29.64,29.49,5,0,5,0.00
2013-1-23,66,51,38,23,18,14,42,28,15,29.63,29.47,5,0,8,0.00
2013-1-24,56,52,49,43,34,20,71,52,30,29.59,29.45,3,0,6,0.00
2013-1-25,65,57,50,51,45,42,85,65,43,29.59,29.34,6,0,8,0.03
2013-1-26,58,54,52,54,52,51,100,94,82,29.33,29.17,5,0,8,0.24
2013-1-27,63,55,46,52,38,29,98,55,33,29.23,29.13,24,9,28,0.01
2013-1-28,51,46,43,30,18,11,52,33,20,29.43,29.21,29,11,30,0.00
2013-1-29,59,49,37,29,24,16,56,39,28,29.59,29.34,21,5,28,0.00
2013-1-30,60,48,37,32,28,25,70,49,29,29.72,29.56,8,0,8,0.00
2013-1-31,67,51,37,36,32,28,80,52,24,29.68,29.51,6,0,8,0.00
2013-2-1,68,53,38,37,33,31,77,49,26,29.63,29.50,2,0,5,0.00
2013-2-2,69,54,43,34,31,25,65,44,20,29.69,29.50,3,0,6,0.00
2013-2-3,69,58,49,35,32,28,55,39,24,29.50,29.33,7,0,12,0.00
2013-2-4,72,56,42,34,29,25,69,40,18,29.48,29.33,3,0,6,0.00
2013-2-5,68,52,40,31,26,23,53,38,19,29.41,29.17,6,0,10,0.00
2013-2-6,70,60,46,32,25,12,50,29,14,29.37,29.15,17,3,20,0.00
2013-2-7,67,56,40,27,22,16,41,28,19,29.47,29.09,17,3,24,0.00
2013-2-8,56,51,44,32,26,18,50,39,24,29.11,29.05,15,6,28,0.00
2013-2-9,55,48,42,31,23,18,65,40,24,29.32,29.09,25,11,27,0.00
2013-2-10,55,45,0,28,18,-20,50,34,20,29.39,29.26,27,7,27,0.00
2013-2-11,53,44,38,26,16,6,51,35,16,29.60,29.40,14,3,19,0.00
2013-2-12,57,42,31,17,12,8,43,31,17,29.74,29.61,6,0,8,0.00
2013-2-13,66,50,34,25,21,16,51,34,19,29.69,29.48,6,0,7,0.00
2013-2-14,68,52,38,27,25,20,59,37,17,29.62,29.49,18,2,18,0.00
2013-2-15,70,56,42,26,22,17,50,28,15,29.74,29.61,9,1,11,0.00
2013-2-16,68,54,39,25,20,16,44,27,15,29.72,29.33,5,0,6,0.00
2013-2-17,72,56,38,22,16,7,47,24,8,29.33,29.11,18,3,22,0.00
2013-2-18,64,54,43,22,18,14,38,24,16,29.44,29.21,10,1,12,0.00
2013-2-19,65,52,38,29,22,16,48,33,19,29.21,28.88,24,4,25,0.00
2013-2-20,57,48,42,39,33,24,80,57,32,29.22,28.86,13,3,18,0.00
2013-2-21,55,45,36,37,25,12,90,53,20,29.43,29.22,5,1,10,0.00
2013-2-22,58,48,36,18,15,10,43,28,18,29.56,29.43,6,1,9,0.00
2013-2-23,61,46,38,25,18,4,49,34,15,29.45,29.21,24,3,24,0.00
2013-2-24,58,48,39,13,8,3,28,20,11,29.58,29.44,22,7,27,0.00
2013-2-25,59,47,34,13,11,9,40,24,14,29.66,29.37,5,0,8,0.00
2013-2-26,60,48,34,15,10,5,39,23,12,29.60,29.42,20,4,22,0.00
2013-2-27,60,47,35,14,10,2,34,23,10,29.75,29.60,11,1,16,0.00
2013-2-28,68,49,35,16,10,6,32,21,11,29.80,29.66,5,0,7,0.00
2013-3-1,76,58,40,27,21,13,38,24,15,29.80,29.58,8,0,11,0.00
2013-3-2,77,62,46,30,28,25,45,29,17,29.67,29.32,6,0,11,0.00
2013-3-3,77,70,59,39,29,22,41,23,16,29.32,29.03,24,8,31,0.00
2013-3-4,73,63,56,42,33,21,56,34,15,29.39,29.10,22,6,29,0.00
2013-3-5,74,61,46,34,29,25,51,31,19,29.46,29.20,16,3,21,0.00
2013-3-6,70,63,56,36,30,25,46,31,19,29.24,29.11,22,8,31,0.00
2013-3-7,64,58,51,34,31,26,50,36,24,29.24,29.12,28,4,31,0.00
2013-3-8,54,50,45,46,40,32,89,69,46,29.19,29.03,17,2,25,0.36
2013-3-9,64,53,44,44,38,29,88,60,27,29.51,29.19,18,3,19,0.00
2013-3-10,69,57,48,34,25,19,52,30,15,29.65,29.48,17,4,21,0.00
2013-3-11,74,58,43,37,30,24,65,39,16,29.58,29.38,6,0,7,0.00
2013-3-12,79,62,46,38,33,28,64,38,16,29.51,29.36,6,0,10,0.00
2013-3-13,83,65,50,37,34,26,58,34,13,29.55,29.38,6,0,8,0.00
2013-3-14,88,69,52,38,34,27,53,30,12,29.52,29.30,8,0,8,0.00
2013-3-15,85,70,58,38,34,30,43,28,14,29.32,29.09,7,0,8,0.00
2013-3-16,86,72,58,36,27,14,41,22,7,29.15,28.99,12,1,18,0.00
2013-3-17,82,72,61,23,14,3,20,12,5,29.19,29.01,26,11,29,0.00
2013-3-18,77,68,56,21,14,9,19,13,8,29.32,29.14,10,2,13,0.00
2013-3-19,79,68,58,30,23,18,29,18,12,29.31,29.16,9,1,14,0.00
2013-3-20,79,70,61,35,30,24,33,23,17,29.28,29.04,14,3,18,0.00
2013-3-21,79,66,52,34,21,2,48,22,5,29.14,28.99,24,5,27,0.00
2013-3-22,75,66,57,18,4,-8,19,10,4,29.22,29.01,32,12,32,0.00
2013-3-23,62,54,48,12,8,4,21,16,10,29.51,29.23,17,3,22,0.00
2013-3-24,72,56,40,17,11,3,32,18,8,29.48,29.25,7,0,8,0.00
2013-3-25,74,61,45,20,17,14,35,19,11,29.38,29.18,8,1,12,0.00
2013-3-26,80,67,56,30,21,16,26,18,9,29.18,29.02,12,1,16,0.00
2013-3-27,79,69,57,34,31,25,39,25,14,29.20,29.07,12,2,16,0.00
2013-3-28,78,69,61,39,35,30,44,29,18,29.29,29.17,8,1,11,0.00
2013-3-29,84,70,53,37,32,29,46,26,16,29.39,29.24,10,1,14,0.00
2013-3-30,85,72,60,34,32,29,37,24,14,29.34,29.20,5,0,9,0.00
2013-3-31,81,67,56,39,33,25,43,30,14,29.26,29.10,21,3,26,0.00
2013-4-1,76,68,59,41,33,26,48,29,16,29.24,29.13,19,4,19,0.00
2013-4-2,80,69,59,33,30,28,34,24,16,29.29,29.17,21,6,25,0.00
2013-4-3,84,71,56,37,32,26,43,25,13,29.39,29.25,7,1,10,0.00
2013-4-4,88,71,57,41,30,25,38,24,11,29.32,29.08,16,2,21,0.00
2013-4-5,84,73,61,41,34,24,41,25,12,29.19,29.08,14,4,21,0.00
2013-4-6,84,71,59,33,27,22,32,20,12,29.21,29.07,10,1,13,0.00
2013-4-7,86,74,59,32,27,22,29,18,10,29.14,28.78,16,5,20,0.00
2013-4-8,75,62,0,44,32,-32,77,35,15,28.95,28.64,28,9,36,0.03
2013-4-9,70,59,52,24,21,18,28,23,14,29.38,28.95,32,14,33,0.01
2013-4-10,76,63,50,24,21,16,32,21,11,29.47,29.23,9,2,11,0.00
2013-4-11,81,68,52,27,24,20,32,19,12,29.25,29.00,7,0,11,0.00
2013-4-12,83,71,56,34,30,24,37,23,14,29.16,29.01,6,1,8,0.00
2013-4-13,88,76,56,33,28,22,35,19,9,29.05,28.78,19,4,22,0.00
2013-4-14,87,74,62,37,31,24,33,21,15,28.97,28.70,19,3,19,0.00
2013-4-15,79,70,62,34,30,23,34,23,13,28.90,28.71,24,8,32,0.00
2013-4-16,64,59,51,33,26,16,41,29,16,29.23,28.83,22,8,32,0.00
2013-4-17,66,56,50,26,19,9,38,24,11,29.52,29.23,24,7,27,0.00
2013-4-18,69,56,45,20,15,9,34,21,10,29.64,29.49,12,2,17,0.00
2013-4-19,77,63,46,20,15,10,27,16,9,29.58,29.21,8,1,13,0.00
2013-4-20,83,70,54,31,23,14,30,17,10,29.33,29.19,16,1,17,0.00
2013-4-21,91,74,55,28,23,20,27,16,8,29.33,29.10,27,1,27,0.00
2013-4-22,92,78,60,28,24,12,25,14,8,29.17,28.92,18,2,25,0.00
2013-4-23,79,67,59,25,16,9,20,14,8,29.41,29.03,26,6,33,0.00
2013-4-24,82,65,51,16,12,6,22,14,6,29.30,29.12,10,1,14,0.00
2013-4-25,85,72,56,29,18,10,24,14,8,29.21,29.09,13,2,18,0.00
2013-4-26,90,71,60,36,27,18,38,21,8,29.37,29.18,11,0,12,0.00
2013-4-27,92,78,59,25,20,16,20,12,7,29.42,29.17,7,0,12,0.00
2013-4-28,97,80,61,28,22,18,21,13,6,29.23,28.98,8,1,12,0.00
2013-4-29,99,86,67,33,25,20,19,12,7,29.09,28.83,11,2,20,0.00
2013-4-30,96,86,74,38,32,21,21,15,9,28.93,28.79,16,4,22,0.00
2013-5-1,83,73,65,21,6,-2,10,7,5,29.58,28.95,19,7,21,0.00
2013-5-2,82,70,59,13,9,3,13,9,6,29.73,29.42,26,6,27,0.00
2013-5-3,89,74,56,18,11,3,18,10,4,29.43,29.04,14,1,14,0.00
2013-5-4,91,78,57,26,14,6,17,10,6,29.05,28.81,16,2,19,0.00
2013-5-5,81,75,67,27,24,20,21,15,11,29.04,28.88,25,8,28,0.00
2013-5-6,77,69,62,56,36,24,55,30,19,29.16,29.04,19,4,27,0.03
2013-5-7,66,66,65,40,39,38,38,38,37,29.14,29.13,6,2,7,0.00
2013-5-8,77,68,60,44,40,33,53,38,22,29.34,29.22,24,3,24,0.00
2013-5-9,78,70,58,48,41,37,51,37,24,29.30,29.21,15,2,19,0.00
2013-5-10,90,76,60,45,40,32,56,30,13,29.36,29.24,13,2,15,0.00
2013-5-11,94,82,64,41,35,27,37,20,10,29.39,29.26,12,1,18,0.00
2013-5-12,99,84,66,35,32,28,27,16,8,29.37,29.16,9,1,10,0.00
2013-5-13,102,88,69,34,31,28,26,14,8,29.26,29.05,14,2,17,0.00
2013-5-14,101,88,70,35,29,16,21,13,6,29.10,28.90,21,4,22,0.00
2013-5-15,98,84,71,37,30,24,23,15,9,29.10,28.94,14,3,19,0.00
2013-5-16,94,84,75,35,29,20,23,14,7,29.03,28.89,18,7,24,0.00
2013-5-17,86,78,72,40,36,30,28,22,17,29.08,28.93,17,6,20,0.00
2013-5-18,89,78,64,42,36,19,42,24,8,29.18,29.04,17,3,17,0.00
2013-5-19,88,79,66,37,27,20,27,15,10,29.21,29.07,24,8,27,0.00
2013-5-20,88,77,65,36,25,19,28,16,9,29.33,29.15,17,3,20,0.00
2013-5-21,94,81,62,36,28,16,28,16,6,29.20,28.87,16,3,21,0.00
2013-5-22,93,83,75,35,26,10,20,13,5,28.88,28.76,27,10,29,0.00
2013-5-23,88,78,67,32,18,-3,22,12,3,29.04,28.82,22,6,26,0.00
2013-5-24,91,77,60,28,19,10,17,11,7,29.16,28.99,18,2,31,0.00
2013-5-25,92,80,71,31,24,14,23,13,6,29.11,29.00,18,5,21,0.00
2013-5-26,90,81,72,32,29,19,22,15,10,29.10,29.01,16,5,18,0.00
2013-5-27,94,81,67,40,31,26,29,18,10,29.12,28.90,12,3,18,0.00
2013-5-28,93,83,70,38,30,19,25,16,7,28.95,28.81,26,8,31,0.00
2013-5-29,93,81,68,37,33,30,26,18,12,29.04,28.84,8,2,11,0.00
2013-5-30,99,86,72,35,28,22,20,13,9,29.06,28.88,14,2,16,0.00
2013-5-31,98,87,74,33,25,18,18,11,6,29.15,28.95,11,2,18,0.00
2013-6-1,99,86,71,31,23,17,19,11,6,29.20,28.98,13,1,14,0.00
2013-6-2,105,89,68,32,25,18,20,11,5,29.01,28.80,16,3,16,0.00
2013-6-3,103,92,78,38,32,26,23,13,7,28.95,28.83,21,4,22,0.00
2013-6-4,102,91,74,38,32,26,21,13,9,29.04,28.91,18,2,18,0.00
2013-6-5,105,92,72,35,30,26,22,12,7,29.09,28.92,10,2,11,0.00
2013-6-6,108,94,75,36,30,25,21,11,6,29.05,28.88,10,1,12,0.00
2013-6-7,109,95,75,36,30,23,19,11,5,29.02,28.85,8,1,11,0.00
2013-6-8,112,98,78,35,30,27,18,10,6,28.96,28.84,15,3,19,0.00
2013-6-9,108,96,82,44,33,21,24,12,6,29.04,28.90,19,4,24,0.00
2013-6-10,102,91,82,41,30,17,21,12,6,29.01,28.88,27,7,28,0.00
2013-6-11,102,89,73,40,34,29,28,15,8,29.15,28.97,12,3,13,0.00
2013-6-12,106,95,80,36,33,26,20,12,7,29.09,28.93,17,4,22,0.00
2013-6-13,102,92,80,40,27,11,23,11,4,29.06,28.93,18,6,24,0.00
2013-6-14,102,89,70,24,16,6,16,7,3,29.08,28.90,14,2,21,0.00
2013-6-15,102,88,68,23,15,5,14,7,3,29.06,28.97,19,3,21,0.00
2013-6-16,100,87,69,30,18,5,19,9,3,29.14,29.01,17,3,21,0.00
2013-6-17,102,89,69,28,20,14,16,8,5,29.13,28.95,13,2,21,0.00
2013-6-18,102,92,80,29,25,14,14,9,4,29.01,28.82,30,6,30,0.00
2013-6-19,97,88,77,37,27,18,21,12,6,28.96,28.82,21,5,27,0.00
2013-6-20,98,86,70,24,17,12,16,8,5,29.01,28.89,14,3,20,0.00
2013-6-21,99,89,76,29,24,16,17,10,5,29.03,28.88,17,4,19,0.00
2013-6-22,99,88,72,29,25,19,19,10,7,29.05,28.89,14,3,16,0.00
2013-6-23,101,89,73,35,30,24,22,13,7,28.96,28.80,19,4,28,0.00
2013-6-24,92,85,78,46,39,29,26,20,12,28.99,28.84,18,7,22,0.00
2013-6-25,99,88,75,49,46,42,40,25,15,29.13,28.99,14,4,18,0.00
2013-6-26,106,94,82,51,47,41,32,21,13,29.15,29.03,14,4,16,0.00
2013-6-27,109,97,80,50,45,36,31,18,11,29.23,29.07,10,2,12,0.00
2013-6-28,114,100,81,46,42,36,26,15,8,29.16,28.95,10,1,12,0.00
2013-6-29,116,102,86,49,40,35,20,13,7,29.05,28.87,7,1,11,0.00
2013-6-30,116,102,85,42,38,35,20,12,7,28.99,28.83,7,1,10,0.00
2013-7-1,113,101,0,54,41,0,24,11,8,29.17,28.86,14,3,17,0.00
2013-7-2,114,79,0,50,32,0,20,8,9,29.06,28.84,13,4,18,0.01
2013-7-3,113,109,92,54,44,28,26,12,9,29.15,28.78,7,3,10,0.00
2013-7-4,113,86,0,48,35,0,17,9,10,28.92,28.75,10,2,16,0.00
2013-7-5,106,74,0,56,36,0,28,13,16,29.03,28.77,24,7,27,0.00
2013-7-6,103,100,89,52,48,37,27,18,14,29.10,28.83,11,6,16,0.00
2013-7-7,104,100,86,61,47,32,36,17,14,29.14,28.85,13,3,17,0.00
2013-7-8,108,103,84,50,37,26,24,12,6,29.11,28.95,16,4,19,0.00
2013-7-9,110,103,81,35,30,26,16,8,6,29.26,29.01,20,6,20,0.00
2013-7-10,108,67,0,59,32,0,25,12,8,29.22,28.95,17,4,22,0.00
2013-7-11,90,53,0,67,38,0,65,29,37,29.18,28.95,20,3,27,0.00
2013-7-12,93,85,79,66,61,55,64,46,30,29.17,29.05,14,1,17,0.00
2013-7-13,102,92,80,62,54,43,50,30,15,29.16,29.00,17,3,19,0.00
2013-7-14,104,93,80,54,49,43,31,23,16,29.13,28.96,14,2,19,0.00
2013-7-15,107,97,86,58,51,45,34,23,13,29.03,28.84,14,2,18,0.00
2013-7-16,106,95,85,51,41,35,23,16,11,29.08,28.94,17,4,21,0.00
2013-7-17,104,95,83,52,43,20,25,17,7,29.21,29.05,11,3,14,0.00
2013-7-18,109,96,80,52,37,18,21,13,7,29.17,28.96,19,2,22,0.00
2013-7-19,110,95,78,69,54,48,73,29,13,29.08,28.90,18,2,37,0.45
2013-7-20,105,90,77,68,62,50,71,42,21,29.12,28.89,33,5,43,0.35
2013-7-21,90,84,78,70,66,62,73,57,43,29.17,29.00,13,2,17,0.00
2013-7-22,97,87,78,69,62,49,73,46,26,29.21,29.07,30,3,30,0.00
2013-7-23,99,88,79,64,59,55,59,39,25,29.20,29.06,24,3,29,0.00
2013-7-24,106,96,81,63,56,49,51,29,16,29.11,28.94,8,1,16,0.00
2013-7-25,111,98,85,57,52,46,35,23,12,29.11,28.98,19,4,22,0.00
2013-7-26,104,95,84,63,57,52,48,29,20,29.20,29.09,17,3,35,0.00
2013-7-27,92,85,78,65,62,59,59,46,34,29.24,29.06,24,6,26,0.00
2013-7-28,97,86,78,65,58,48,55,40,24,29.08,29.00,39,5,46,0.02
2013-7-29,103,88,75,60,50,35,56,32,11,29.16,29.06,11,2,17,0.00
2013-7-30,104,93,78,49,43,38,26,18,13,29.25,29.13,18,4,21,0.00
2013-7-31,107,93,0,52,46,-25,37,21,11,29.23,29.01,13,1,17,0.00
2013-8-1,106,96,84,48,34,20,22,13,6,29.10,28.95,22,4,22,0.00
2013-8-2,103,91,76,39,31,21,23,12,7,29.10,28.98,14,2,14,0.00
2013-8-3,105,91,72,39,34,28,25,14,9,29.14,29.01,14,2,19,0.00
2013-8-4,106,93,76,45,38,30,23,15,8,29.14,28.99,16,2,17,0.00
2013-8-5,105,92,0,43,30,-50,25,12,6,29.14,28.99,17,2,17,0.00
2013-8-6,103,91,76,45,37,25,23,15,7,29.14,29.01,20,5,20,0.00
2013-8-7,100,91,79,49,28,16,28,12,5,29.16,29.03,16,4,21,0.00
2013-8-8,99,88,79,33,29,22,17,12,7,29.10,29.00,20,5,22,0.00
2013-8-9,101,89,72,35,30,24,22,13,8,29.11,29.00,18,2,22,0.00
2013-8-10,100,88,70,36,30,24,25,14,8,29.17,29.05,17,3,21,0.00
2013-8-11,100,88,70,34,28,17,25,13,6,29.18,29.03,16,3,17,0.00
2013-8-12,103,89,71,35,27,20,22,12,6,29.18,29.02,8,1,11,0.00
2013-8-13,103,90,71,32,25,16,20,11,5,29.18,29.05,10,2,14,0.00
2013-8-14,104,90,72,34,27,19,19,11,6,29.17,29.01,12,1,13,0.00
2013-8-15,105,91,74,50,38,28,20,16,10,29.17,29.02,10,1,14,0.00
2013-8-16,108,96,80,51,47,41,29,19,12,29.14,28.99,12,2,14,0.00
2013-8-17,109,96,81,51,46,39,29,19,10,29.12,28.95,19,3,19,0.00
2013-8-18,102,89,77,67,54,48,70,32,19,29.26,29.06,18,3,26,0.06
2013-8-19,97,85,74,70,62,54,81,51,25,29.28,29.07,8,1,14,0.02
2013-8-20,105,93,81,64,56,45,53,32,15,29.13,28.96,11,2,20,0.00
2013-8-21,106,94,0,52,47,-23,34,22,11,29.13,28.99,13,2,16,0.00
2013-8-22,103,94,84,52,48,43,30,21,15,29.14,29.03,16,2,18,0.00
2013-8-23,96,87,80,63,54,44,55,34,20,29.15,29.01,20,3,22,0.00
2013-8-24,92,84,77,63,55,50,49,37,27,29.16,29.04,26,4,26,0.00
2013-8-25,90,80,74,69,61,54,84,54,32,29.30,29.14,28,3,28,0.00
2013-8-26,78,75,72,68,66,62,83,72,64,29.32,29.22,10,1,10,0.02
2013-8-27,96,82,69,67,61,55,85,55,27,29.24,29.04,12,1,16,0.00
2013-8-28,100,90,78,63,57,53,57,35,23,29.15,29.06,13,2,17,0.00
2013-8-29,100,90,80,68,62,57,55,40,27,29.24,29.12,11,2,13,0.00
2013-8-30,92,84,76,79,68,63,92,60,45,29.33,29.17,11,1,13,0.12
2013-8-31,92,85,79,72,68,60,73,57,42,29.22,29.12,8,1,14,0.00
2013-9-1,94,84,76,71,66,62,79,55,37,29.21,29.06,7,1,11,0.00
2013-9-2,98,88,80,66,62,54,60,43,24,29.21,29.03,16,1,22,0.00
2013-9-3,98,87,76,69,61,52,72,44,23,29.26,29.08,22,2,28,0.00
2013-9-4,102,90,80,64,58,47,52,36,17,29.22,29.09,22,2,35,0.00
2013-9-5,102,87,75,66,59,51,70,42,20,29.23,29.08,10,1,153,0.00
2013-9-6,102,89,78,61,55,50,49,34,20,29.15,29.06,20,2,22,0.00
2013-9-7,88,84,80,64,58,55,52,41,36,29.21,29.09,16,1,16,0.00
2013-9-8,88,78,70,73,64,52,100,64,45,29.23,29.05,8,1,12,0.04
2013-9-9,94,80,72,70,64,51,89,62,27,29.10,28.94,36,1,39,0.23
2013-9-10,85,77,72,67,62,56,79,61,44,29.15,29.06,9,0,13,0.00
2013-9-11,83,74,69,66,63,56,88,69,40,29.25,29.13,11,1,12,0.10
2013-9-12,87,76,69,65,60,56,83,62,36,29.29,29.11,10,1,13,0.00
2013-9-13,94,84,72,64,57,51,74,44,25,29.14,28.93,8,0,11,0.00
2013-9-14,96,90,81,55,52,48,37,28,22,29.04,28.91,17,1,17,0.00
2013-9-15,99,87,74,58,51,46,54,31,18,29.08,28.96,13,1,13,0.00
2013-9-16,101,89,75,54,50,41,46,28,16,29.10,28.93,12,1,13,0.00
2013-9-17,101,88,74,53,40,25,47,21,8,29.00,28.81,17,3,28,0.00
2013-9-18,95,84,70,34,30,26,25,15,9,28.99,28.85,14,2,19,0.00
2013-9-19,94,84,74,38,30,23,21,15,10,29.13,28.99,11,2,13,0.00
2013-9-20,95,80,66,38,34,31,30,20,12,29.12,28.95,20,2,20,0.00
2013-9-21,96,82,68,43,34,23,32,19,8,29.03,28.81,24,6,27,0.00
2013-9-22,82,73,64,44,36,33,36,27,18,29.11,28.83,34,10,36,0.00
2013-9-23,88,76,61,38,33,29,40,23,13,29.24,29.10,8,1,17,0.00
2013-9-24,94,78,61,39,32,28,40,21,10,29.24,28.93,18,2,21,0.00
2013-9-25,89,81,72,38,30,18,27,16,9,28.92,28.70,30,10,33,0.00
2013-9-26,74,68,62,36,25,15,27,20,13,29.17,28.80,24,9,25,0.00
2013-9-27,77,66,57,32,27,24,32,23,16,29.35,29.17,20,4,22,0.00
2013-9-28,82,68,53,30,26,20,37,22,12,29.45,29.31,11,0,11,0.00
2013-9-29,89,72,55,29,25,20,31,19,10,29.40,29.19,7,0,11,0.00
2013-9-30,89,74,58,35,28,22,29,19,12,29.25,29.08,6,0,7,0.00
2013-10-1,92,77,58,37,31,26,37,20,11,29.19,29.04,17,3,20,0.00
2013-10-2,92,80,66,39,34,29,30,20,13,29.12,28.96,18,3,22,0.00
2013-10-3,85,75,64,35,25,5,30,17,8,29.26,28.95,21,5,26,0.00
2013-10-4,73,64,56,25,20,14,24,19,14,29.58,29.27,16,4,22,0.00
2013-10-5,77,65,55,25,22,18,27,19,12,29.68,29.51,11,2,14,0.00
2013-10-6,84,66,50,26,20,15,28,18,8,29.58,29.34,7,0,8,0.00
2013-10-7,83,68,54,29,22,16,27,19,11,29.35,29.13,5,0,6,0.00
2013-10-8,85,69,52,26,22,16,30,19,8,29.15,28.89,17,1,18,0.00
2013-10-9,68,64,0,48,33,-28,77,33,18,29.01,28.83,16,4,19,0.00
2013-10-10,69,59,53,47,42,39,80,56,34,29.27,29.00,10,2,14,0.00
2013-10-11,74,61,50,45,40,36,70,48,27,29.39,29.26,6,0,8,0.00
2013-10-12,77,65,51,40,36,30,57,37,20,29.33,29.12,8,1,10,0.00
2013-10-13,77,68,58,38,32,23,47,27,14,29.32,29.09,28,5,31,0.00
2013-10-14,75,64,52,40,34,26,55,34,20,29.46,29.32,11,1,12,0.00
2013-10-15,74,64,53,32,27,24,39,25,16,29.40,29.29,17,3,19,0.00
2013-10-16,74,62,0,28,23,-32,36,24,13,29.52,29.35,11,1,14,0.00
2013-10-17,78,62,47,28,22,17,33,23,12,29.43,29.23,3,0,6,0.00
2013-10-18,81,65,49,28,23,19,36,22,12,29.44,29.28,8,1,10,0.00
2013-10-19,81,65,51,28,22,18,28,20,12,29.45,29.26,6,0,6,0.00
2013-10-20,84,65,50,26,22,19,32,21,10,29.33,29.14,6,0,6,0.00
2013-10-21,83,67,52,28,23,17,28,19,12,29.37,29.21,8,0,10,0.00
2013-10-22,84,68,52,29,25,22,37,21,12,29.42,29.25,7,1,13,0.00
2013-10-23,84,67,54,28,25,22,32,21,11,29.32,29.17,6,0,11,0.00
2013-10-24,85,69,54,32,25,20,29,20,11,29.29,29.17,4,0,7,0.00
2013-10-25,86,69,53,34,30,25,38,24,14,29.42,29.27,5,0,6,0.00
2013-10-26,86,69,54,33,28,23,32,22,13,29.49,29.30,6,0,7,0.00
2013-10-27,85,71,54,32,27,23,36,21,11,29.30,28.79,24,3,24,0.00
2013-10-28,70,64,56,35,31,24,45,30,20,29.09,28.74,32,9,40,0.00
2013-10-29,65,57,48,39,34,25,59,43,27,29.27,29.08,17,4,18,0.00
2013-10-30,66,56,48,39,33,26,62,43,26,29.40,29.28,13,2,13,0.00
2013-10-31,70,56,44,32,28,25,50,36,21,29.52,29.40,3,0,8,0.00
2013-11-1,76,59,45,33,30,27,54,35,20,29.57,29.40,5,0,7,0.00
2013-11-2,77,60,45,32,29,26,50,33,18,29.42,29.11,6,0,9,0.00
2013-11-3,76,61,47,33,26,21,44,28,14,29.17,29.06,13,2,17,0.00
2013-11-4,64,57,52,31,25,16,41,29,19,29.34,29.06,14,2,14,0.00
2013-11-5,63,53,44,29,16,10,47,23,14,29.63,29.34,16,4,24,0.00
2013-11-6,71,54,38,22,16,10,33,23,14,29.75,29.59,3,0,5,0.00
2013-11-7,73,58,44,25,21,17,39,25,14,29.65,29.40,5,0,5,0.00
2013-11-8,75,57,42,30,20,14,39,25,13,29.47,29.27,3,0,4,0.00
2013-11-9,77,58,44,25,21,17,38,25,13,29.47,29.35,3,0,5,0.00
2013-11-10,77,59,42,28,23,17,40,27,14,29.55,29.40,3,0,4,0.00
2013-11-11,81,62,46,28,23,19,39,24,12,29.56,29.40,4,0,6,0.00
2013-11-12,80,63,51,29,23,19,31,22,12,29.62,29.45,4,0,5,0.00
2013-11-13,83,64,52,25,22,19,29,21,11,29.49,29.30,4,0,6,0.00
2013-11-14,77,62,49,31,26,20,36,25,17,29.41,28.97,5,0,8,0.00
2013-11-15,74,64,51,28,25,20,36,23,16,28.98,28.86,10,2,11,0.00
2013-11-16,69,59,46,37,30,22,49,34,25,29.16,28.95,20,4,24,0.00
2013-11-17,68,56,44,40,36,32,66,48,31,29.43,29.17,5,0,6,0.00
2013-11-18,69,57,45,38,36,32,63,47,31,29.50,29.30,3,0,7,0.00
2013-11-19,68,57,50,41,38,36,61,50,34,29.31,29.19,6,0,6,0.00
2013-11-20,68,57,49,42,38,36,62,50,34,29.23,29.10,6,0,6,0.00
2013-11-21,63,54,46,52,45,39,92,72,48,29.37,29.11,13,3,18,0.48
2013-11-22,51,47,45,43,40,38,87,78,63,29.41,29.33,18,7,19,0.36
2013-11-23,49,47,46,45,42,37,89,83,65,29.50,29.37,14,4,17,0.34
2013-11-24,58,50,44,45,42,38,91,75,49,29.54,29.47,6,0,10,0.00
2013-11-25,64,50,40,44,39,32,95,69,31,29.63,29.53,5,0,6,0.00
2013-11-26,67,52,41,41,36,29,84,60,25,29.71,29.52,4,0,6,0.00
2013-11-27,64,51,43,42,37,32,82,62,31,29.54,29.35,11,0,11,0.00
2013-11-28,63,50,42,46,38,34,84,65,36,29.49,29.36,8,0,13,0.00
2013-11-29,66,51,40,42,37,33,84,62,32,29.61,29.48,3,0,5,0.00
2013-11-30,67,51,40,40,36,31,82,59,27,29.64,29.48,3,0,6,0.00
2013-12-1,66,51,40,38,34,28,77,55,27,29.70,29.54,2,0,5,0.00
2013-12-2,65,51,39,40,36,33,81,59,32,29.55,29.12,6,0,6,0.00
2013-12-3,70,54,40,43,37,30,87,58,29,29.11,28.75,27,5,33,0.00
2013-12-4,46,40,34,30,14,6,68,36,21,29.45,29.21,24,5,25,0.10
2013-12-5,42,34,29,18,12,7,60,39,25,29.54,29.41,6,1,8,0.00
2013-12-6,42,34,25,20,14,9,71,46,28,29.63,29.43,6,1,10,0.00
2013-12-7,54,43,31,31,20,3,69,43,17,29.43,29.09,24,7,33,0.00
2013-12-8,43,37,29,11,6,1,46,28,19,29.66,29.39,22,3,27,0.00
2013-12-9,42,34,27,10,4,-1,48,29,16,29.93,29.66,14,2,19,0.00
2013-12-10,47,35,24,16,10,6,58,38,20,29.90,29.65,3,0,6,0.00
2013-12-11,56,40,26,22,18,14,65,43,21,29.78,29.66,2,0,3,0.00
2013-12-12,58,42,30,24,21,17,66,46,20,29.72,29.50,2,0,5,0.00
2013-12-13,58,44,31,26,22,19,68,45,23,29.70,29.49,3,0,8,0.00
2013-12-14,61,49,40,29,22,15,52,36,21,29.85,29.69,8,0,12,0.00
2013-12-15,63,47,34,35,26,22,69,47,22,29.82,29.65,2,0,3,0.00
2013-12-16,67,49,36,36,28,24,69,47,21,29.74,29.58,5,0,5,0.00
2013-12-17,65,50,37,33,29,25,69,46,23,29.71,29.47,2,0,3,0.00
2013-12-18,59,50,43,34,30,26,60,48,28,29.46,29.04,8,0,8,0.00
2013-12-19,60,51,41,38,32,29,65,49,33,29.09,28.95,19,4,19,0.00
2013-12-20,56,50,45,38,25,14,61,38,27,29.24,29.09,27,10,27,0.00
2013-12-21,63,51,38,29,21,13,43,31,23,29.40,29.16,21,2,29,0.00
2013-12-22,62,50,39,30,27,24,62,43,25,29.69,29.40,5,0,6,0.00
2013-12-23,63,48,36,33,30,27,73,52,29,29.82,29.68,2,0,6,0.00
2013-12-24,66,50,37,37,32,26,77,52,27,29.70,29.56,5,0,5,0.00
2013-12-25,66,51,39,32,23,14,64,37,16,29.79,29.63,5,0,10,0.00
2013-12-26,66,46,0,23,16,-33,50,33,13,29.76,29.59,3,0,4,0.00
2013-12-27,67,49,34,24,18,14,49,32,13,29.72,29.46,2,0,5,0.00
2013-12-28,63,48,40,29,23,21,51,38,21,29.48,29.32,5,0,8,0.00
2013-12-29,61,50,39,22,16,10,39,26,14,29.65,29.47,19,4,22,0.00
2013-12-30,62,45,32,19,15,11,49,31,14,29.73,29.57,3,0,4,0.00
2013-12-31,63,46,34,22,19,16,51,36,18,29.66,29.44,3,0,3,0.00
2014-1-1,68,48,34,27,23,20,59,40,19,29.65,29.49,2,0,5,0.00
2014-1-2,68,50,37,28,25,22,60,41,18,29.64,29.45,5,0,6,0.00